Location: Flitcham
(52.8000°N, 0.5667°E)
Time: 07:39:51
(UTC+00:00)

Cosmos 2098 Rocket - Pass Details

Date: 15 May 2026
Orbit: 346 x 838 km, 82.9° (Epoch: 6 June)

Event Time Altitude Azimuth Distance (km) Brightness Sun altitude
Exits shadow 20:51:45 - 156° (SSE) 2,231 5.3 -8.1°
Reaches altitude 10° 20:52:06 10° 155° (SSE) 2,103 5.2 -8.1°
Maximum altitude 20:56:14 33° 92° (E) 1,041 3.9 -8.5°
Drops below altitude 10° 20:59:53 10° 29° (NNE) 1,837 5.8 -8.9°
Sets 21:02:02 0° 19° (NNE) 2,649 6.8 -9.1°
